STARLINK-36086, 66980

Orbit data source: Space-Track

STARLINK-36086, 66980 is a payload satellite owned by SpaceX/Seattle (US) in LEO that was launched on Mon, 08 Dec 2025 UTC via an FALCON 9 launch vehicle from the Air Force Eastern Test Range (AFETR). Payload-class satellites include a variety of spacecraft equipped with specific instruments for various scientific and technological missions. These include communications satellites like Starlink; space stations such as the ISS; scientific satellites like the Hubble; Earth observation satellites from companies like Planet Labs, Umbra, and HawkEye 360; GPS; miniature CubeSats for education and research; and military/defense satellites.

Loading next visibility...
Identifier
66980, 2025-288X
Orbit
LEO
Country
Flag of USUS
Related business
Manufacturer
SpaceX/Seattle
Mission
Operational Commercial Communications
Bus & Motor
STARLINK V2MO, Unknown motor
Mass
575 kg wet, ~530 kg dry
Launch date (UTC)
2025-12-08 (7 months ago)
Launch vehicle
FALCON 9
Launch site
Air Force Eastern Test Range (AFETR)
Object type
Payload
Rocket body
Debris
Shape & HBR
Box + 2 Pan, 17.7 m
Radar Cross Section
36.964 m², Large (>1 m²)

Expand to show TLE details & history
Last TLE update: 14 hours ago

TLE from 14 hours ago
0 STARLINK-36086
1 66980U 25288X   26177.55334685  .00019969  00000-0  73309-3 0  9995
2 66980  42.9977 128.9104 0001158 289.4985  70.5741 15.27585337 31930
Epoch: 2026-06-26T13:16Z
TLE epoch observation values (Epoch: 2026-06-26T13:16:49.167Z)
Latitude
-0.00007°
Longitude
15.02527°
Altitude
482.544 km
Speed
7.626 km/s
True Right ascension
08h 35m 38s
True Declination
0° 00' 00"
Sunlit
Object was in daylight at epoch
Visualization orbit readout
Latitude
Unknown
Longitude
Unknown
Altitude
Unknown
Speed
Unknown
Apparent Right ascension
Unknown
Apparent Declination
Unknown
Sunlit
N/A
Visualization observer readout
Local Sidereal Time
14:59:39
Azimuth
Unknown
Elevation
Unknown
Doppler factor
Unknown
Orbital elements
Apogee altitude
485.773 km
Perigee altitude
484.184 km
Semi-major axis
6,863.116 km
Eccentricity
0.00012
Inclination
42.9977°
RAAN
128.9104°
Arg. of periapsis
289.4985°
True anomaly
70.58661°
Mean anomaly
70.5741°
Eccentric anomaly
70.58036°
Mean motion
3.81734 °/min
Orbital period
94.31 mins
BSTAR
0.00073309
Loading maneuver chart data...
Computing Atmospheric mass density...
Loading historical data...
Loading historical data...
Loading historical data...
Loading historical data...
Loading historical data...
Loading historical data...
Loading historical data...

Documentation

Showing up to 5 results
|